Flag for U.S.A. Weather past 2 weeks in San Diego, California, U.S.A.

Now
67 °F

Clear.


Feels Like: 67 °F
Forecast: 66 / 73 °F
Wind: 5 mph from Northwest

Location: San Diego - North Island

Current Time: Oct 20, 2014 at 2:00:09 AM

Latest Report: Oct 20, 2014 at 12:52 AM


Visibility: 10 mi

Pressure: 29.87 "Hg

Humidity: 85%

Dew point: 62 °F

Location of San DiegoLocation

Historic Weather in San Diego — Graph

°F

San Diego temperature yesterday

Maximum temperature yesterday: 75 °F (at 1:52 PM)
Minimum temperature yesterday: 67 °F (at 1:52 AM)
Average temperature yesterday: 70 °F

Past Weeks' High & Low Weather Summary

 TemperatureHumidityPressure
High88 °F (Oct 7, 12:52 PM)100% (Oct 5, 12:52 AM)30.02 "Hg (Oct 5, 12:52 AM)
Low61 °F (Oct 5, 5:52 AM)13% (Oct 6, 10:52 AM)29.80 "Hg (Oct 8, 4:52 AM)
Average71 °F71%29.91 "Hg
* Reported Oct 5 12:52 AM — Oct 20 12:52 AM, San Diego, Weather by CustomWeather, © 2014

Note: Actual official high and low records may vary slightly from our data, if they occured in-between our weather recording intervals... More about our weather records

Advertising

San Diego weather history for previous 24 hours

 ConditionsComfort  
Time TempWeatherWind HumidityBarometerVisibility
12:52 AM
Oct 20
67 °FClear.5 mph85%29.87 "Hg10 mi
11:52 PM
Oct 19
67 °FPassing clouds.3 mph85%29.88 "Hg10 mi
10:52 PM69 °FPassing clouds.No wind79%29.88 "Hg10 mi
9:52 PM68 °FPassing clouds.No wind82%29.88 "Hg10 mi
8:52 PM68 °FPassing clouds.No wind82%29.88 "Hg10 mi
7:52 PM69 °FPassing clouds.3 mph79%29.86 "Hg10 mi
6:52 PM69 °FScattered clouds.7 mph79%29.85 "Hg10 mi
5:52 PM70 °FScattered clouds.7 mph73%29.84 "Hg10 mi
4:52 PM72 °FScattered clouds.9 mph68%29.83 "Hg10 mi
3:52 PM73 °FPartly sunny.14 mph66%29.84 "Hg10 mi
2:52 PM74 °FPartly sunny.16 mph64%29.85 "Hg10 mi
1:52 PM75 °FScattered clouds.15 mph64%29.86 "Hg10 mi
12:52 PM74 °FScattered clouds.12 mph64%29.87 "Hg10 mi
11:52 AM74 °FScattered clouds.7 mph62%29.89 "Hg10 mi
10:52 AM71 °FBroken clouds.6 mph66%29.90 "Hg10 mi
9:52 AM70 °FBroken clouds.7 mph68%29.91 "Hg10 mi
8:52 AM70 °FBroken clouds.3 mph68%29.91 "Hg8 mi
7:52 AM68 °FPartly cloudy.No wind73%29.89 "Hg10 mi
7:03 AM67 °FPartly cloudy.No wind76%29.88 "Hg10 mi
6:52 AM68 °FOvercast.No wind73%29.87 "Hg10 mi
5:52 AM68 °FMostly cloudy.No wind73%29.86 "Hg10 mi
4:52 AM67 °FMild.3 mph76%29.85 "Hg10 mi
3:52 AM67 °FMild.3 mph76%29.84 "Hg10 mi
2:52 AM67 °FMild.5 mph76%29.85 "Hg10 mi
Weather by CustomWeather, © 2014

See weather overviewHow to use our weather pages